Hourly Weather Godziszowa

Today, 15 May, Saturday

Time Temperature Precipitation Wind Pressure Humidity
00:00 +7°C° 0 mm 2 mps 740 mmHg 92%
01:00 +7°C° 0 mm 2 mps 740 mmHg 92%
02:00 +7°C° 0 mm 2 mps 740 mmHg 92%
03:00 +8°C° 0 mm 1 mps 740 mmHg 92%
04:00 +8°C° 0 mm 1 mps 740 mmHg 92%
05:00 +10°C° 0 mm 1 mps 740 mmHg 88%
06:00 +11°C° 0 mm 1 mps 740 mmHg 84%
07:00 +13°C° 0 mm 1 mps 740 mmHg 80%
08:00 +15°C° 0.2 mm 2 mps 740 mmHg 73%
09:00 +16°C° 0.2 mm 2 mps 740 mmHg 66%
10:00 +18°C° 0.2 mm 2 mps 740 mmHg 59%
11:00 +18°C° 0.3 mm 2 mps 740 mmHg 58%
12:00 +18°C° 0.3 mm 2 mps 739 mmHg 58%
13:00 +18°C° 0.3 mm 2 mps 739 mmHg 57%
14:00 +17°C° 0.5 mm 2 mps 739 mmHg 65%
15:00 +16°C° 0.5 mm 3 mps 739 mmHg 74%
16:00 +13°C° 0.5 mm 3 mps 739 mmHg 82%
17:00 +14°C° 0.2 mm 2 mps 739 mmHg 84%
18:00 +13°C° 0.2 mm 2 mps 738 mmHg 87%
19:00 +12°C° 0.2 mm 2 mps 738 mmHg 89%
20:00 +12°C° 0 mm 2 mps 738 mmHg 90%
21:00 +10°C° 0 mm 2 mps 738 mmHg 91%
22:00 +9°C° 0 mm 2 mps 738 mmHg 92%
23:00 +9°C° 0 mm 2 mps 738 mmHg 92%

Tomorrow, 16 May, Sunday

Time Temperature Precipitation Wind Pressure Humidity
00:00 +9°C° 0 mm 2 mps 738 mmHg 91%
01:00 +8°C° 0 mm 2 mps 738 mmHg 91%
02:00 +8°C° 0 mm 2 mps 738 mmHg 92%
03:00 +8°C° 0 mm 2 mps 738 mmHg 93%
04:00 +8°C° 0 mm 2 mps 738 mmHg 93%
05:00 +9°C° 0 mm 2 mps 738 mmHg 90%
06:00 +10°C° 0 mm 2 mps 738 mmHg 87%
07:00 +12°C° 0 mm 2 mps 738 mmHg 84%
08:00 +13°C° 0 mm 2 mps 738 mmHg 77%
09:00 +14°C° 0 mm 2 mps 738 mmHg 70%
10:00 +15°C° 0 mm 2 mps 738 mmHg 64%
11:00 +16°C° 0.3 mm 2 mps 738 mmHg 63%
12:00 +16°C° 0.3 mm 2 mps 738 mmHg 63%
13:00 +17°C° 0.3 mm 2 mps 738 mmHg 62%
14:00 +17°C° 0.5 mm 2 mps 738 mmHg 63%
15:00 +17°C° 0.5 mm 2 mps 737 mmHg 64%
16:00 +17°C° 0.5 mm 2 mps 737 mmHg 66%
17:00 +15°C° 0.3 mm 2 mps 737 mmHg 70%
18:00 +14°C° 0.3 mm 2 mps 737 mmHg 75%
19:00 +13°C° 0.3 mm 1 mps 737 mmHg 80%
20:00 +12°C° 0 mm 2 mps 737 mmHg 82%
21:00 +10°C° 0 mm 2 mps 737 mmHg 85%
22:00 +9°C° 0 mm 2 mps 737 mmHg 87%
23:00 +9°C° 0 mm 2 mps 737 mmHg 88%

Day after tomorrow, 17 May, Monday

Time Temperature Precipitation Wind Pressure Humidity
00:00 +9°C° 0 mm 2 mps 737 mmHg 89%
01:00 +9°C° 0 mm 3 mps 737 mmHg 90%
02:00 +9°C° 0.1 mm 3 mps 737 mmHg 90%
03:00 +9°C° 0.1 mm 3 mps 737 mmHg 90%
04:00 +9°C° 0.1 mm 3 mps 737 mmHg 91%
05:00 +10°C° 0 mm 3 mps 737 mmHg 89%
06:00 +12°C° 0 mm 2 mps 737 mmHg 87%
07:00 +12°C° 0 mm 2 mps 737 mmHg 84%
08:00 +12°C° 0.2 mm 3 mps 737 mmHg 80%
09:00 +13°C° 0.2 mm 3 mps 737 mmHg 75%
10:00 +14°C° 0.2 mm 3 mps 737 mmHg 70%
11:00 +14°C° 0.4 mm 4 mps 737 mmHg 72%
12:00 +14°C° 0.4 mm 4 mps 737 mmHg 74%
13:00 +14°C° 0.4 mm 5 mps 738 mmHg 75%
14:00 +14°C° 0.4 mm 5 mps 738 mmHg 77%
15:00 +13°C° 0.4 mm 5 mps 738 mmHg 78%
16:00 +13°C° 0.4 mm 6 mps 738 mmHg 79%
17:00 +12°C° 0.2 mm 5 mps 738 mmHg 81%
18:00 +11°C° 0.2 mm 4 mps 738 mmHg 83%
19:00 +11°C° 0.2 mm 4 mps 738 mmHg 85%
20:00 +10°C° 0 mm 3 mps 738 mmHg 88%
21:00 +9°C° 0 mm 3 mps 739 mmHg 90%
22:00 +8°C° 0 mm 3 mps 739 mmHg 92%
23:00 +7°C° 0 mm 3 mps 739 mmHg 91%

18 May, Tuesday

Time Temperature Precipitation Wind Pressure Humidity
00:00 +7°C° 0 mm 3 mps 739 mmHg 91%
01:00 +7°C° 0 mm 3 mps 739 mmHg 91%
02:00 +7°C° 0 mm 3 mps 739 mmHg 90%
03:00 +7°C° 0 mm 3 mps 739 mmHg 90%
04:00 +7°C° 0 mm 3 mps 739 mmHg 89%
05:00 +7°C° 0 mm 4 mps 739 mmHg 87%
06:00 +8°C° 0 mm 4 mps 739 mmHg 85%
07:00 +10°C° 0 mm 4 mps 740 mmHg 83%
08:00 +10°C° 0.1 mm 5 mps 740 mmHg 79%
09:00 +11°C° 0.1 mm 6 mps 740 mmHg 76%
10:00 +13°C° 0.1 mm 6 mps 740 mmHg 72%
11:00 +13°C° 0.2 mm 6 mps 740 mmHg 71%
12:00 +13°C° 0.2 mm 6 mps 741 mmHg 70%
13:00 +14°C° 0.2 mm 6 mps 741 mmHg 70%
14:00 +14°C° 0.2 mm 6 mps 741 mmHg 71%
15:00 +13°C° 0.2 mm 6 mps 741 mmHg 73%
16:00 +13°C° 0.2 mm 6 mps 741 mmHg 75%
17:00 +12°C° 0.2 mm 5 mps 741 mmHg 79%
18:00 +12°C° 0.2 mm 5 mps 742 mmHg 82%
19:00 +11°C° 0.2 mm 4 mps 742 mmHg 86%
20:00 +10°C° 0 mm 4 mps 742 mmHg 88%
21:00 +8°C° 0 mm 4 mps 743 mmHg 90%
22:00 +7°C° 0 mm 4 mps 743 mmHg 92%
23:00 +7°C° 0 mm 4 mps 743 mmHg 92%

19 May, Wednesday

Time Temperature Precipitation Wind Pressure Humidity
00:00 +7°C° 0 mm 4 mps 743 mmHg 93%
01:00 +6°C° 0 mm 4 mps 744 mmHg 94%
02:00 +7°C° 0.1 mm 4 mps 744 mmHg 93%
03:00 +7°C° 0.1 mm 5 mps 744 mmHg 93%
04:00 +7°C° 0.1 mm 5 mps 744 mmHg 93%
05:00 +8°C° 0.1 mm 5 mps 744 mmHg 93%
06:00 +8°C° 0.1 mm 5 mps 745 mmHg 92%
07:00 +8°C° 0.1 mm 5 mps 745 mmHg 91%
08:00 +9°C° 0.1 mm 5 mps 745 mmHg 83%
09:00 +10°C° 0.1 mm 5 mps 745 mmHg 74%
10:00 +11°C° 0.1 mm 6 mps 745 mmHg 66%
11:00 +12°C° 0 mm 5 mps 745 mmHg 62%
12:00 +13°C° 0 mm 5 mps 745 mmHg 59%
13:00 +14°C° 0 mm 4 mps 745 mmHg 55%
14:00 +14°C° 0.1 mm 4 mps 745 mmHg 59%
15:00 +14°C° 0.1 mm 4 mps 745 mmHg 62%
16:00 +13°C° 0.1 mm 4 mps 745 mmHg 66%
17:00 +12°C° 0.3 mm 4 mps 745 mmHg 72%
18:00 +11°C° 0.3 mm 3 mps 745 mmHg 79%
19:00 +10°C° 0.3 mm 3 mps 745 mmHg 85%
20:00 +9°C° 0.1 mm 3 mps 745 mmHg 87%
21:00 +8°C° 0.1 mm 3 mps 746 mmHg 89%
22:00 +7°C° 0.1 mm 3 mps 746 mmHg 91%
23:00 +7°C° 0 mm 3 mps 746 mmHg 91%

20 May, Thursday

Time Temperature Precipitation Wind Pressure Humidity
00:00 +6°C° 0 mm 4 mps 746 mmHg 91%
01:00 +6°C° 0 mm 4 mps 746 mmHg 91%
02:00 +6°C° 0 mm 4 mps 746 mmHg 91%
03:00 +5°C° 0 mm 4 mps 746 mmHg 91%
04:00 +5°C° 0 mm 4 mps 746 mmHg 91%
05:00 +6°C° 0 mm 4 mps 747 mmHg 88%
06:00 +8°C° 0 mm 4 mps 747 mmHg 84%
07:00 +9°C° 0 mm 5 mps 747 mmHg 80%
08:00 +10°C° 0.2 mm 5 mps 747 mmHg 74%
09:00 +12°C° 0.2 mm 5 mps 746 mmHg 69%
10:00 +13°C° 0.2 mm 5 mps 746 mmHg 63%
11:00 +13°C° 0.1 mm 5 mps 746 mmHg 62%
12:00 +14°C° 0.1 mm 5 mps 746 mmHg 61%
13:00 +14°C° 0.1 mm 5 mps 745 mmHg 60%
14:00 +14°C° 0.1 mm 5 mps 745 mmHg 60%
15:00 +15°C° 0.1 mm 4 mps 745 mmHg 60%
16:00 +15°C° 0.1 mm 4 mps 744 mmHg 60%
17:00 +14°C° 0 mm 4 mps 744 mmHg 64%
18:00 +13°C° 0 mm 3 mps 744 mmHg 69%
19:00 +12°C° 0 mm 3 mps 743 mmHg 73%
20:00 +11°C° 0 mm 3 mps 743 mmHg 75%
21:00 +10°C° 0 mm 2 mps 743 mmHg 77%
22:00 +10°C° 0 mm 2 mps 743 mmHg 79%
23:00 +10°C° 0 mm 3 mps 742 mmHg 78%
Show more